Back to catalog

STARLINK-6230

AliveCommunicationsVLEO
NORAD 57228·PAYLOAD·🇺🇸 United States

Launched Jul 7, 2023 from Vandenberg Space Force Base

Loading…

Next Passes (next 24 hours)

TLE

FreshSource: CelesTrak SupGP

Epoch: Sep 15, 2026, 02:18 UTC

1 57228C 23094L   26258.09631944 -.00034461  00000+0 -12480-2 0  2585
2 57228  43.0036  40.6118 0001823 272.2060 240.0808 15.27600494    16

Track STARLINK-6230 in real time with AllMySat

Download on the App Store